Details From LPFR - Faro
To LXGB - Gibraltar
Flight Number -
Tags decoded
Created
Modified
Stats Distance 138 nm / 255 km
Max Altitude 0 ft / 0 m
Waypoints 3
Social Downloads 1
Likes 0
Share

Download

Looking for another format? Having issues loading an existing format? Contact us
Advertisement - Login to hide

Notes

Requested: LPFR VJF LXGB

Route

LPFR VJF LXGB

ID Type Via Altitude (ft/m) Position (lat/lon) Dist (leg/tot) Name
O LPFR APT - 0 / 0 37.01534 / -7.97233 - / 0 nm Faro
VJF VOR - 0 / 0 36.24718 / -5.97187 106 / 106 nm VEJER VOR-DME
O LXGB APT - 0 / 0 36.15121 / -5.34966 30 / 137 nm Gibraltar

Altitude Profile

Advertisement - Login to hide

LPFR

Details ICAO LPFR (FAO)
Name Faro
Region Portugal
Timezone Europe/Lisbon (UTC+0.0)
Stats Elevation 22 ft / 7 m (AMSL)
Location 37.015300° -7.972320°
Runways 1
Magnetic Variation 1.585° W

METAR

LPFR 241100Z 06008KT 9999 FEW030 BKN038 16/10 Q1023

Decode

TAF

TAF LPFR 240500Z 2406/2506 03007KT 9999 SCT020 BECMG 2406/2409 07010KT TEMPO 2409/2415 BKN018 BECMG 2417/2419 VRB02KT BECMG 2500/2503 23010KT BKN015 TEMPO 2503/2506 5000 -RA BR SCT006 BKN012

Decode

Departure Runways

ID Width Length Bearing (true/mag) Surface Threshold Overrun Markings Lighting
10 148 ft / 45 m 8,179 ft / 2,493 m 100.08° / 101.66° ASPHALT 148 ft / 45 m 0 ft / 0 m PREC-APP EDGE THRESHOLD REIL-OMNI
28 148 ft / 45 m 8,179 ft / 2,493 m 280.09° / 281.68° ASPHALT 144 ft / 44 m 0 ft / 0 m PREC-APP EDGE THRESHOLD REIL-OMNI

LXGB

Details ICAO LXGB (GIB)
Name Gibraltar
Region Gibralter
Timezone Europe/Gibraltar (UTC+1.0)
Stats Elevation 15 ft / 5 m (AMSL)
Location 36.151200° -5.349850°
Runways 1
Magnetic Variation 0.788° W

METAR

LXGB 241050Z 07012KT 9999 BKN020 BKN025 17/13 Q1025 TEMPO FEW020

Decode

TAF

Not found

Destination Runways

ID Width Length Bearing (true/mag) Surface Threshold Overrun Markings Lighting
09 148 ft / 45 m 5,836 ft / 1,779 m 87.52° / 88.31° ASPHALT 476 ft / 145 m 0 ft / 0 m UK-PREC-APP EDGE THRESHOLD REIL-OMNI
27 148 ft / 45 m 5,836 ft / 1,779 m 267.53° / 268.32° ASPHALT 354 ft / 108 m 0 ft / 0 m UK-PREC-APP EDGE THRESHOLD REIL-OMNI

Popular Alternatives